Regional Weather Roundup
Issued by NWS

Home | Current Version | Previous Version | Graphics & Text | Print | Product List | Glossary On
Versions: 1 2 3 4 5 6 7 8 9 10 11 12 13 14 15 16 17 18 19 20 21 22 23 24 25 26 27 28 29 30 31 32 33 34 35 36 37 38 39 40 41 42 43 44 45 46 47 48 49 50
000
ASUS43 KMKX 190700
RWRWI

WISCONSIN REGIONAL WEATHER ROUNDUP
NATIONAL WEATHER SERVICE MILWAUKEE/SULLIVAN WI
200 AM CDT TUE SEP 19 2017

NOTE: "FAIR" INDICATES FEW OR NO CLOUDS BELOW 12,000 FEET WITH NO
SIGNIFICANT WEATHER AND/OR OBSTRUCTIONS TO VISIBILITY.

WIZ001-002-006>008-014>016-023>028-190800-
NORTHWEST WISCONSIN

CITY           SKY/WX    TMP DP  RH WIND       PRES   REMARKS
SUPERIOR ARPT  CLOUDY    55  53  92 CALM      29.99R
ASHLAND        CLOUDY    56  53  90 NE3       30.00F
HAYWARD        CLOUDY    58  55  90 SE8       29.99F
SIREN          CLOUDY    57  54  88 CALM      29.96F
CUMBERLAND     CLOUDY    55  54  94 SE5       29.98S
RICE LAKE      CLOUDY    57  55  95 E6        29.99F
CHETEK         CLOUDY    57  57  98 CALM      29.98F
LADYSMITH      CLOUDY    59  57  94 E6        30.01F
EAU CLAIRE     CLOUDY    57  56  96 E3        29.96F
MENOMONIE      MOCLDY    56  55  96 CALM      29.97F
NEW RICHMOND   CLOUDY    57  55  94 SE3       29.96F
OSCEOLA        MOCLDY    55  55 100 CALM      29.98F
$$

WIZ003>005-009-010-017-018-190800-
NORTH CENTRAL WISCONSIN

CITY           SKY/WX    TMP DP  RH WIND       PRES   REMARKS
MANITOWISH WTR CLOUDY    55  55 100 SE3       30.03F
ARBOR VITAE    CLOUDY    57  55  92 CALM      30.03F
WOODRUFF       CLOUDY    57  55  92 CALM      30.03F
RHINELANDER    CLOUDY    55  54  96 SE7       30.04F
EAGLE RIVER    CLOUDY    55  52  91 SE3       30.04F
LAND O LAKES   CLOUDY    54  52  93 CALM      30.06F
PHILLIPS       CLOUDY    55  55 100 SE5       30.01F
TOMAHAWK         N/A     55  53  95 CALM      30.04F
MEDFORD        CLOUDY    55  54  95 E6        30.01F
MERRILL          N/A     55  55 100 CALM      30.04F
$$

WIZ029-030-035-036-043>047-190800-
CENTRAL WISCONSIN

CITY           SKY/WX    TMP DP  RH WIND       PRES   REMARKS
WAUSAU         CLOUDY    56  54  93 E6        30.01F
MOSINEE        CLOUDY    55  54  94 E3        30.03F
MARSHFIELD     MOCLDY    56  53  90 E5        30.00S
STEVENS POINT  CLOUDY    56  50  80 E5        30.02F
WAUPACA        CLOUDY    59  55  86 N3        30.02S
WAUTOMA        MOCLDY    58  54  86 NE3       30.01S
WISC RAPIDS    CLOUDY    58  53  84 E3        30.02S
CAMP DOUGLAS   NOT AVBL
$$

WIZ011>013-019>022-031-037>040-048>050-190800-
NORTHEAST WISCONSIN

CITY           SKY/WX    TMP DP  RH WIND       PRES   REMARKS
ANTIGO         CLOUDY    55  53  95 E5        30.05S
SHAWANO        CLOUDY    61  55  81 NE6       30.04S
OCONTO         CLOUDY    57  53  86 N3        30.04S
STURGEON BAY   CLOUDY    59  56  89 N7        30.04S
GREEN BAY      CLOUDY    58  57  97 NE8       30.02F
MANITOWOC      CLOUDY    58  56  93 CALM      30.01F
APPLETON       MOCLDY    57  48  72 NE6       30.00F
CLINTONVILLE   CLOUDY    57  52  82 NE3       30.03S
OSHKOSH        CLOUDY    62  57  83 E5        30.00S
$$

WIZ032>034-041-042-053>061-190800-
SOUTHWEST WISCONSIN

CITY           SKY/WX    TMP DP  RH WIND       PRES   REMARKS
LA CROSSE      CLOUDY    61  60  97 SE3       29.96S
SPARTA         LGT RAIN  56  56  99 N5        29.99S
VIROQUA        CLOUDY    60  59  99 E6        29.98R
BOSCOBEL       PTCLDY    60  57  89 CALM      29.97R
PRAIRIE DU CHI PTCLDY    58  55  91 CALM      29.96R
PLATTEVILLE    CLEAR     62  58  88 E9        29.97S
$$

WIZ056-057-062-063-064-067-068-190800-
SOUTH CENTRAL WISCONSIN

CITY           SKY/WX    TMP DP  RH WIND       PRES   REMARKS
REEDSBURG      PTCLDY    58  53  82 NE3       29.98R
BARABOO/DELLS  PTCLDY    59  53  79 E5        29.99R
LONE ROCK      NOT AVBL
MINERAL POINT  CLOUDY    63  57  82 E7        29.97F
MADISON        CLOUDY    59  55  87 CALM      29.98F
MIDDLETON      CLOUDY    61  56  83 E7        29.99F
WATERTOWN      CLOUDY    59  59 100 NE3       29.98F
MONROE         CLOUDY    59  54  82 CALM      29.98R
JANESVILLE     MOCLDY    63  61  94 E3        29.97S
$$

WIZ051-052-058>065-066-070>072-190800-
SOUTHEAST WISCONSIN

CITY           SKY/WX    TMP DP  RH WIND       PRES   REMARKS
MILWAUKEE      CLOUDY    64  61  90 N3        29.97F
WAUKESHA       CLOUDY    57  54  88 CALM      30.00S
MILWAUKEE/TIMM CLOUDY    59  54  82 CALM      30.00F
RACINE         CLOUDY    63  62  97 NE3       29.98F
BURLINGTON     CLOUDY    59  59 100 CALM      29.98F
KENOSHA        CLOUDY    63  59  87 N3        29.97F
FOND DU LAC    CLOUDY    61  53  75 NE3       30.00F
SHEBOYGAN      CLOUDY    59  58  96 CALM      30.00S
WEST BEND        N/A     57  55  94 CALM      30.00S
JUNEAU         CLOUDY    58  55  91 CALM      30.01F
$$

LSZ147-162-190800-
LAKE SUPERIOR

STATION/POSITION TIME  TEMP    WIND        PRES    WAVE
                       AIR SEA DIR/SP/G            HT/PER
                 (UTC) (F)     (DEG/KT/KT) (MB)    (FT/S)
W MID LAKE BUOY  0550   56 54  130/ 10/ 10 1016.7F   1/ 3
DEVILS ISLAND    0600   58     130/  6/  8 1016.2F
SAXON HARBOR     0630   59     190/  2/  5 1015.2F
$$

LMZ867-665-643>646-190800-
LAKE MICHIGAN

STATION/POSITION TIME  TEMP    WIND        PRES    WAVE
                       AIR SEA DIR/SP/G            HT/PER
                 (UTC) (F)     (DEG/KT/KT) (MB)    (FT/S)
S GREEN BAY BUOY 0630   64 66   30/ 10/ 12 1016.9S
N MID LAKE BUOY  0550   64 65  110/ 14/ 16 1017.7R   2/ 3
NORTHPORT PIER   0640   65      80/  9/ 11 1017.3S
KEWAUNEE LAKESHO 0630   62      10/  1/  3 1015.9R
SHEBOYGAN LAKESH 0600   61     300/  6/  7 1015.4S
PORT WASHINGTON  0630   61     310/  5/  8 1016.6R
ATWATER BUOY     0509   67 67   60/  6/  8 1015.6F
MILWAUKEE LAKESH 0630   65     330/  1/  1   N/A
S MID LAKE BUOY  0550   68 68   60/  6/  8 1015.3F   2/ 4
KENOSHA   LAKESH 0600   67      70/  6/  6 1014.9
$$

TC  - TEMPERATURE IN CELSIUS
VSB - VISIBILITY IN STATUTE MILES
WCI - WIND CHILL INDEX
HX  - HEAT INDEX





USA.gov is the U.S. government's official web portal to all federal, state and local government web resources and services.